Fort Payne, AL

8:59 PM CST on December 04, 2016 (GMT -0600)
Fort Payne

Weather History for K4A9 - April, 2014

Change the Weather History Date:

Saturday, April 12, 2014

  Actual Average (KRMG) Record (KRMG)
Temperature  
Mean Temperature 61 °F 59 °F  
Max Temperature 78 °F 72 °F 84 °F (2001)
Min Temperature 44 °F 46 °F 33 °F (2012)
Degree Days  
Heating Degree Days 4 7  
Month to date heating degree days 96  
Since 1 July heating degree days 3123  
Cooling Degree Days 0 1  
Month to date cooling degree days 8  
Year to date cooling degree days 12  
Growing Degree Days 11 (Base 50)    
Moisture  
Dew Point 47 °F    
Average Humidity 62    
Maximum Humidity 93    
Minimum Humidity 28    
Precipitation  
Precipitation 0.00 in 0.13 in 0.75 in (1997)
Month to date precipitation 1.46  
Year to date precipitation 16.10  
Snow  
Snow 0.00 in - - ()
Month to date snowfall  
Since 1 July snowfall  
Snow Depth -    
Sea Level Pressure  
Sea Level Pressure 30.13 in    
Wind  
Wind Speed 2 mph (SSW)    
Max Wind Speed 14 mph    
Max Gust Speed 21 mph    
Visibility 9 miles    
Events      
T = Trace of Precipitation, MM = Missing Value Source: NWS Daily Summary

Daily Weather History Graph

Daily Weather History Graph

Search for Another Location

Airport or City:

Trip Planner

Search our weather history database for the weather conditions in past years. The results will help you decide how hot, cold, wet, or windy it might be!

Date:

Astronomy

Apr. 12, 2014 Rise Set
Actual Time 6:15 AM CDT 7:12 PM CDT
Civil Twilight 5:49 AM CDT 7:38 PM CDT
Nautical Twilight 5:19 AM CDT 8:08 PM CDT
Astronomical Twilight 4:47 AM CDT 8:40 PM CDT
Moon 4:55 PM CDT (4/12) 4:35 AM CDT (4/12)
Length of Visible Light 13h 48m
Length of Day
12h 57m
Waxing Gibbous, 93% of the Moon is Illuminated
Apr 12
Waxing Gibbous
Apr 15
Full
Apr 22
Last Quarter
Apr 29
New
May 6
First Quarter

Hourly Weather History & Observations

Time (CDT) Temp. Dew Point Humidity Pressure Visibility Wind Dir Wind Speed Gust Speed Precip Events Conditions
12:15 AM 57.2 °F 48.2 °F 72% 30.17 in 10.0 mi ESE 4.6 mph - N/A   Clear
12:35 AM 55.4 °F 48.2 °F 77% 30.16 in 10.0 mi Calm Calm - N/A   Scattered Clouds
12:55 AM 55.4 °F 48.2 °F 77% 30.15 in 10.0 mi Calm Calm - N/A   Scattered Clouds
1:15 AM 53.6 °F 48.2 °F 82% 30.15 in 10.0 mi Calm Calm - N/A   Scattered Clouds
1:55 AM 51.8 °F 46.4 °F 82% 30.15 in 10.0 mi Calm Calm - N/A   Clear
2:15 AM 51.8 °F 46.4 °F 82% 30.15 in 10.0 mi Calm Calm - N/A   Clear
2:35 AM 50.0 °F 46.4 °F 87% 30.15 in 10.0 mi NNE 3.5 mph - N/A   Clear
2:55 AM 51.8 °F 46.4 °F 82% 30.16 in 10.0 mi Calm Calm - N/A   Clear
3:15 AM 51.8 °F 46.4 °F 82% 30.16 in 10.0 mi Calm Calm - N/A   Clear
3:35 AM 50.0 °F 46.4 °F 87% 30.16 in 10.0 mi Calm Calm - N/A   Clear
3:55 AM 50.0 °F 44.6 °F 82% 30.16 in 7.0 mi Calm Calm - N/A   Clear
4:15 AM 48.2 °F 44.6 °F 87% 30.16 in 7.0 mi Calm Calm - N/A   Clear
4:35 AM 46.4 °F 44.6 °F 93% 30.16 in 5.0 mi Calm Calm - N/A   Clear
4:55 AM 46.4 °F 44.6 °F 93% 30.16 in 7.0 mi Calm Calm - N/A   Clear
5:15 AM 46.4 °F 44.6 °F 93% 30.16 in 7.0 mi Calm Calm - N/A   Clear
5:35 AM 46.4 °F 44.6 °F 93% 30.17 in 4.0 mi Calm Calm - N/A   Clear
5:55 AM 46.4 °F 44.6 °F 93% 30.17 in 5.0 mi Calm Calm - N/A   Clear
6:15 AM 44.6 °F 42.8 °F 93% 30.18 in 7.0 mi Calm Calm - N/A   Clear
6:35 AM 46.4 °F 44.6 °F 93% 30.18 in 5.0 mi Calm Calm - N/A   Clear
6:55 AM 44.6 °F 42.8 °F 93% 30.19 in 7.0 mi Calm Calm - N/A   Clear
7:15 AM 48.2 °F 44.6 °F 87% 30.20 in 7.0 mi Calm Calm - N/A   Clear
7:35 AM 50.0 °F 46.4 °F 87% 30.20 in 7.0 mi Calm Calm - N/A   Clear
7:55 AM 53.6 °F 48.2 °F 82% 30.21 in 10.0 mi Calm Calm - N/A   Clear
8:15 AM 55.4 °F 50.0 °F 82% 30.21 in 10.0 mi Calm Calm - N/A   Clear
8:35 AM 59.0 °F 50.0 °F 72% 30.21 in 10.0 mi Calm Calm - N/A   Clear
8:55 AM 62.6 °F 48.2 °F 59% 30.21 in 10.0 mi Calm Calm - N/A   Clear
9:15 AM 62.6 °F 50.0 °F 63% 30.21 in 10.0 mi Calm Calm - N/A   Clear
9:35 AM 64.4 °F 50.0 °F 59% 30.21 in 10.0 mi Calm Calm - N/A   Clear
9:55 AM 66.2 °F 51.8 °F 60% 30.21 in 10.0 mi Calm Calm - N/A   Clear
10:15 AM 68.0 °F 51.8 °F 56% 30.21 in 10.0 mi WSW 3.5 mph - N/A   Clear
10:35 AM 68.0 °F 50.0 °F 52% 30.21 in 10.0 mi WNW 3.5 mph - N/A   Clear
10:55 AM 69.8 °F 50.0 °F 49% 30.20 in 10.0 mi WSW 10.4 mph - N/A   Clear
11:15 AM 71.6 °F 48.2 °F 43% 30.19 in 10.0 mi Calm Calm - N/A   Scattered Clouds
11:35 AM 71.6 °F 50.0 °F 46% 30.18 in 10.0 mi SW 4.6 mph - N/A   Scattered Clouds
11:55 AM 73.4 °F 46.4 °F 38% 30.18 in 10.0 mi South 5.8 mph - N/A   Scattered Clouds
12:15 PM 73.4 °F 46.4 °F 38% 30.17 in 10.0 mi SSW 10.4 mph 20.7 mph N/A   Clear
12:35 PM 73.4 °F 44.6 °F 36% 30.16 in 10.0 mi SSW 9.2 mph - N/A   Clear
12:55 PM 73.4 °F 42.8 °F 33% 30.15 in 10.0 mi SE 4.6 mph - N/A   Clear
1:15 PM 75.2 °F 42.8 °F 31% 30.14 in 10.0 mi SSW 6.9 mph - N/A   Clear
1:35 PM 75.2 °F 44.6 °F 34% 30.13 in 10.0 mi SSE 8.1 mph - N/A   Clear
1:55 PM 77.0 °F 46.4 °F 34% 30.12 in 10.0 mi SW 13.8 mph 19.6 mph N/A   Clear
2:15 PM 75.2 °F 46.4 °F 36% 30.12 in 10.0 mi SSE 8.1 mph 17.3 mph N/A   Clear
2:35 PM 77.0 °F 46.4 °F 34% 30.11 in 10.0 mi South 6.9 mph 16.1 mph N/A   Clear
2:55 PM 77.0 °F 46.4 °F 34% 30.10 in 10.0 mi SSW 6.9 mph 16.1 mph N/A   Clear
3:15 PM 77.0 °F 46.4 °F 34% 30.09 in 10.0 mi South 5.8 mph 16.1 mph N/A   Clear
3:35 PM 77.0 °F 46.4 °F 34% 30.08 in 10.0 mi SSW 4.6 mph - N/A   Clear
3:55 PM 77.0 °F 46.4 °F 34% 30.07 in 7.0 mi SSW 9.2 mph - N/A   Clear
4:15 PM 77.0 °F 46.4 °F 34% 30.07 in 10.0 mi SW 8.1 mph - N/A   Clear
4:35 PM 78.8 °F 44.6 °F 30% 30.07 in 10.0 mi South 10.4 mph - N/A   Scattered Clouds
4:55 PM 78.8 °F 44.6 °F 30% 30.06 in 10.0 mi South 5.8 mph - N/A   Clear
5:15 PM 77.0 °F 42.8 °F 29% 30.06 in 10.0 mi SSW 8.1 mph - N/A   Clear
5:35 PM 77.0 °F 42.8 °F 29% 30.05 in 10.0 mi South 3.5 mph - N/A   Clear
5:55 PM 78.8 °F 42.8 °F 28% 30.06 in 10.0 mi SSW 5.8 mph - N/A   Clear
6:15 PM 77.0 °F 44.6 °F 32% 30.06 in 10.0 mi SSW 5.8 mph - N/A   Clear
6:35 PM 75.2 °F 44.6 °F 34% 30.06 in 10.0 mi SSW 3.5 mph - N/A   Clear
6:55 PM 73.4 °F 44.6 °F 36% 30.07 in 10.0 mi Calm Calm - N/A   Clear
7:15 PM 71.6 °F 46.4 °F 41% 30.07 in 10.0 mi Calm Calm - N/A   Clear
7:35 PM 69.8 °F 50.0 °F 49% 30.07 in 10.0 mi Calm Calm - N/A   Clear
7:55 PM 66.2 °F 50.0 °F 56% 30.07 in 10.0 mi Calm Calm - N/A   Clear
8:15 PM 64.4 °F 51.8 °F 64% 30.08 in 10.0 mi Calm Calm - N/A   Clear
8:35 PM 62.6 °F 51.8 °F 68% 30.08 in 10.0 mi Calm Calm - N/A   Clear
8:55 PM 62.6 °F 50.0 °F 63% 30.08 in 10.0 mi Calm Calm - N/A   Clear
9:15 PM 60.8 °F 51.8 °F 72% 30.08 in 10.0 mi Calm Calm - N/A   Clear
9:35 PM 59.0 °F 50.0 °F 72% 30.09 in 10.0 mi Calm Calm - N/A   Clear
9:55 PM 57.2 °F 50.0 °F 77% 30.09 in 10.0 mi Calm Calm - N/A   Clear
10:15 PM 57.2 °F 50.0 °F 77% 30.09 in 10.0 mi Calm Calm - N/A   Clear
10:35 PM 55.4 °F 48.2 °F 77% 30.09 in 10.0 mi Calm Calm - N/A   Clear
10:55 PM 53.6 °F 50.0 °F 88% 30.09 in 10.0 mi Calm Calm - N/A   Clear
11:15 PM 53.6 °F 48.2 °F 82% 30.09 in 10.0 mi Calm Calm - N/A   Clear
11:35 PM 51.8 °F 46.4 °F 82% 30.09 in 10.0 mi Calm Calm - N/A   Clear
11:55 PM 51.8 °F 46.4 °F 82% 30.09 in 10.0 mi Calm Calm - N/A   Clear